星链-1484 (STARLINK-1484 )

导读

STARLINK-1484是美国太空探索技术公司(SpaceX)星链互联网星座中的一颗卫星,于北京时间2020年6月13日发射入轨,属于星链项目早期组网卫星。星链旨在通过低轨卫星群为全球提供覆盖广泛的高速互联网服务,该卫星承担着星座网络节点功能,推进全球无缝网络覆盖的布局。

基本信息
目录编号:
45756
目录名称:
STARLINK-1484
国际标识:
2020-038AC
轨道中心:
EARTH
卫星名称:
星链-1484
卫星全名:
星链-1484 (STARLINK-1484 )
卫星状态:
已陨落 最后检测时间 2026-03-22
发射日期:
2020-06-13 UTC
国别 :
美国 (US)
星等 :
--
轨道信息
数据来源 国际轨道数据
星历时间: 2026-03-22T14:24:47+0800
轨道信息已过期82天
半长轴: 6529.254km
偏心率: 0.000561
轨道倾角: 52.986°
近地点辐角 253.019°
升交点赤经 350.023°
平近点角 107.025°
近地点: 147.454km
远地点: 154.78km
周期: 87.509分钟
每日圈数: 16.455362
详细信息
固有亮度:
5
最大亮度:
2.5
卫星平台:
Starlink V1.0
覆盖范围:
全球
运营商:
太空探索技术公司
运营商所在国:
美国
制造商(研发单位):
太空探索技术公司
制造商所在国:
美国
使用方式:
暂无
卫星简介
星链(Starlink)计划是由太空探索技术公司(SpaceX)提出的一个巨型低轨卫星互联网星座项目,计划在2019年至2024年间在太空搭建由约1.2万颗卫星组成的“星链”网络,其中1584颗将部署在地球上空550千米处的近地轨道,并从2020年开始工作。该卫星仍在工作。